Flag for U.S.A. Weather past 2 weeks in Vevay, Indiana, U.S.A.

Now
67 °F

Passing clouds.


Feels Like: 67 °F
Forecast: 65 / 83 °F
Wind: 3 mph from Southeast

Location: Cincinnati / Northern Kentucky International Airport

Current Time: May 29, 2015 at 6:54:33 AM

Latest Report: May 29, 2015 at 5:52 AM


Visibility: 10 mi

Pressure: 30.11 "Hg

Humidity: 93%

Dew point: 65 °F

Location of VevayLocation

Historic Weather in Vevay — Graph

°F

Vevay temperature yesterday

Maximum temperature yesterday: 81 °F (at 3:52 PM)
Minimum temperature yesterday: 62 °F (at 3:52 AM)
Average temperature yesterday: 71 °F

Past Weeks' High & Low Weather Summary

 TemperatureHumidityPressure
High83 °F (May 24, 2:52 PM)97% (May 17, 4:52 AM)30.38 "Hg (May 17, 4:52 AM)
Low43 °F (May 22, 6:52 AM)29% (May 23, 4:52 PM)29.96 "Hg (May 21, 2:52 AM)
Average67 °F71%30.13 "Hg
* Reported May 14 5:52 AM — May 29 5:52 AM, Vevay, Weather by CustomWeather, © 2015

Note: Actual official high and low records may vary slightly from our data, if they occured in-between our weather recording intervals... More about our weather records

Advertising

Vevay weather history for previous 24 hours

 ConditionsComfort  
Time TempWeatherWind HumidityBarometerVisibility
5:52 AM
Fri, May 29
67 °FPassing clouds.3 mph93%30.11 "Hg10 mi
4:52 AM68 °FMostly cloudy.No wind93%30.11 "Hg7 mi
3:52 AM68 °FLight rain. Fog.5 mph93%30.10 "Hg5 mi
2:52 AM69 °FLight rain. Fog.8 mph87%30.11 "Hg6 mi
1:52 AM69 °FPassing clouds.3 mph87%30.11 "Hg10 mi
12:52 AM69 °FPartly cloudy.5 mph87%30.13 "Hg10 mi
11:52 PM
Thu, May 28
69 °FPassing clouds.7 mph87%30.14 "Hg9 mi
10:52 PM70 °FPartly cloudy.5 mph84%30.16 "Hg10 mi
9:52 PM71 °FScattered clouds.5 mph78%30.15 "Hg10 mi
8:52 PM74 °FScattered clouds.No wind69%30.13 "Hg10 mi
7:52 PM78 °FScattered clouds.6 mph62%30.12 "Hg10 mi
6:52 PM80 °FScattered clouds.7 mph56%30.12 "Hg10 mi
5:52 PM81 °FPassing clouds.7 mph58%30.13 "Hg10 mi
4:52 PM80 °FScattered clouds.7 mph56%30.15 "Hg10 mi
3:52 PM81 °FPassing clouds.6 mph53%30.16 "Hg10 mi
2:52 PM79 °FScattered clouds.6 mph62%30.17 "Hg9 mi
1:52 PM77 °FPartly sunny.7 mph66%30.19 "Hg8 mi
12:52 PM77 °FPartly sunny.3 mph71%30.21 "Hg7 mi
12:01 PM73 °FPartly sunny.5 mph78%30.23 "Hg5 mi
10:57 AM70 °FOvercast.3 mph83%30.23 "Hg2 mi
9:52 AM67 °FFog.No wind90%30.20 "Hg2 mi
8:53 AM64 °FFog.No wind94%30.22 "Hg1 mi
7:52 AM64 °FFog.No wind97%30.19 "Hg0 mi
6:52 AM64 °FFog.No wind97%30.18 "Hg0 mi
Weather by CustomWeather, © 2015

See weather overviewHow to use our weather pages